User: anonymous   Login
Location: Unspecified
(0.0000°N, 0.0000°E)
Time: 01:11:02
(UTC+00:00)
Language:

Nimbus 6 - Orbit

View from above orbital plane
View from above orbital plane
View from above satellite
View from above satellite

Ground track
Ground track

The orbit data is extracted from the following two-line orbital elements,

1  7924U 75052A   18265.58940757 -.00000036 +00000-0 +17390-4 0  9992
2  7924 100.1841 152.0741 0007674 188.0244 231.0265 13.40712262117613
Epoch (UTC): 22 September 2018 14:08:44
Eccentricity: 0.0007674
inclination: 100.1841°
perigee height: 1101 km
apogee height: 1112 km
right ascension of ascending node: 152.0741°
argument of perigee: 188.0244°
revolutions per day: 13.40712262
mean anomaly at epoch: 231.0265°
orbit number at epoch: 11761

The dashed part of the orbit path shows where the satellite is in the earth's shadow,  

DLR